Showing default

OPS 6577 (VELA 5), 1458

Orbit data source: Space-Track

OPS 6577 (VELA 5), 1458 is a payload satellite owned by USAF SSD (US) in HEO that was launched on Tue, 20 Jul 1965 UTC via an ATLAS AGENA D launch vehicle from the Air Force Eastern Test Range (AFETR). Payload-class satellites include a variety of spacecraft equipped with specific instruments for various scientific and technological missions. These include communications satellites like Starlink; space stations such as the ISS; scientific satellites like the Hubble; Earth observation satellites from companies like Planet Labs, Umbra, and HawkEye 360; GPS; miniature CubeSats for education and research; and military/defense satellites.

Loading next visibility...
Identifier
1458, 1965-058A
Orbit
HEO
Country
Flag of USUS
Related business
Manufacturer
TRW
Mission
Spacecraft
Bus & Motor
VELA, BE-3A
Mass
~234 kg wet, 132 kg dry
Launch date (UTC)
1965-07-20 (60 years ago)
Launch vehicle
ATLAS AGENA D
Launch site
Air Force Eastern Test Range (AFETR)
Object type
Payload
Rocket body
Debris
Shape & HBR
Unknown
Radar Cross Section
RCS unknown

Expand to show TLE details & history
Last TLE update: in 1 day

TLE from in 1 day
0 OPS 6577 (VELA 5)
1 01458U 65058A   25310.52680037 -.00000709  00000-0  00000-0 0  9991
2 01458  26.5235  18.7656 4980849 309.2097   0.9885  0.21363206 11586
Epoch: 2025-11-06T12:38Z
TLE epoch observation values (Epoch: 2025-11-06T12:38:35.551Z)
Latitude
-19.99622°
Longitude
96.45367°
Altitude
54,220.017 km
Speed
3.128 km/s
True Right ascension
22h 08m 20s
True Declination
-19° 58' 60"
Sunlit
Object was in daylight at epoch
Visualization orbit readout
Latitude
Unknown
Longitude
Unknown
Altitude
Unknown
Speed
Unknown
Apparent Right ascension
Unknown
Apparent Declination
Unknown
Sunlit
N/A
Visualization observer readout
Local Sidereal Time
02:52:55
Azimuth
Unknown
Elevation
Unknown
Doppler factor
Unknown
Orbital elements
Apogee altitude
170,698.957 km
Perigee altitude
52,949.387 km
Semi-major axis
118,202.309 km
Eccentricity
0.49808
Inclination
26.5235°
RAAN
18.7656°
Arg. of periapsis
309.2097°
True anomaly
3.40118°
Mean anomaly
0.9885°
Eccentric anomaly
1.96907°
Mean motion
0.05341 °/min
Orbital period
6,740.6 mins
BSTAR
0
Loading maneuver chart data...
Computing Atmospheric mass density...
Loading historical data...
Loading historical data...
Loading historical data...
Loading historical data...
Loading historical data...
Loading historical data...
Loading historical data...
Other satellites on launch #58 in the year 1965 (1965-07-20 UTC)

Documentation

Showing up to 5 results
|